[[{"header":{"parameterUnit":"m.s-1","parameterCategory":1,"la1":30.2991,"la2":30.254,"lo1":-89.0895,"lo2":-89.0444,"dy":0.0017,"dx":0.0017,"nx":28,"ny":28,"refTime":"2024-04-22T09:00:00:Z","depth":0,"parameterNumber":2,"parameterNumberName":"U-component_of_WINDS"},"data":[0,0,0,0,0,0,0,0,0,0,0,0,0,0,0,0,0,0,0,0,0,0,0,0,0,0,0,0,0,0,0,0,0,0,0,0,0,0,0,0,0,0,0,0,0,0,0,0,0,0,0,0,0,0,0,0,0,0,-2.052,-2.052,0,-2.059,-2.0591,-2.0592,-2.0517,-2.0514,-2.0511,-2.0508,-2.0582,-2.0587,-2.0592,0,0,0,0,0,0,0,0,0,0,0,0,0,-2.032,-2.0324,-2.052,-2.0521,-2.0521,-2.059,-2.0591,-2.0592,-2.0517,-2.0514,-2.051,-2.0507,-2.0581,-2.0586,-2.0592,0,0,0,0,0,0,0,0,0,0,0,0,0,-2.0401,-2.0325,-2.0519,-2.0492,-2.049,-2.059,-2.0591,-2.0593,-2.0518,-2.0513,-2.0509,-2.0505,-2.0579,-2.0586,-2.0593,-2.0724,0,0,-2.0614,-2.0617,0,0,0,0,0,0,0,0,-2.0396,-2.0408,-2.0495,-2.0494,-2.0492,-2.054,-2.0548,-2.0637,-2.0519,-2.0508,-2.0508,-2.0503,-2.0572,-2.0579,-2.0602,-2.0727,-2.073,-2.0615,-2.0619,-2.0622,-2.0624,0,0,0,0,0,0,0,-2.0391,-2.0404,-2.0548,-2.0497,-2.0495,-2.0477,-2.0483,-2.0565,-2.0563,-2.0508,-2.0503,-2.0512,-2.057,-2.0596,-2.0603,-2.0731,-2.0615,-2.0621,-2.0625,-2.0628,-2.0967,-2.0971,0,0,0,0,0,0,-2.0388,-2.04,-2.0545,-2.055,-2.0432,-2.0484,-2.0491,-2.0529,-2.0562,-2.0563,-2.0516,-2.0508,-2.0586,-2.0595,-2.0606,-2.0762,-2.0622,-2.0629,-2.0633,-2.0962,-2.0968,-2.0973,0,0,0,0,0,0,-2.0384,-2.0402,-2.0543,-2.0474,-2.049,-2.0492,-2.0535,-2.0533,-2.0558,-2.0568,-2.0568,-2.0542,-2.0583,-2.0596,-2.0695,-2.0763,-2.0632,-2.0638,-2.0956,-2.0964,-2.097,-2.1075,0,0,0,0,0,0,-2.0378,-2.0401,-2.045,-2.0475,-2.0494,-2.0631,-2.0539,-2.0538,-2.057,-2.0561,-2.0592,-2.0593,-2.058,-2.0685,-2.0702,-2.0771,-2.0644,-2.095,-2.096,-2.0968,-2.1065,-2.1084,-2.1101,0,0,0,0,0,-2.0372,-2.0477,-2.0453,-2.0471,-2.0556,-2.0635,-2.0646,-2.0628,-2.0576,-2.0626,-2.0632,-2.0592,-2.0752,-2.0695,-2.0714,-2.0786,-2.0946,-2.0957,-2.0967,-2.1057,-2.1081,-2.11,0,0,0,0,0,0,-2.0462,-2.048,-2.0454,-2.0571,-2.0602,-2.0622,-2.0685,-2.0653,-2.07,-2.069,-2.0666,-2.0674,-2.0779,-2.0792,-2.0728,-2.0914,-2.0841,-2.0856,-2.0903,-2.0925,-2.0943,-2.0939,-2.065,0,0,0,0,0,-2.0495,-2.0556,-2.0569,-2.0671,-2.0688,-2.0684,-2.0717,-2.0701,-2.0732,-2.0745,-2.0758,-2.0791,-2.0848,-2.0887,-2.094,-2.1065,-2.1071,-2.1124,-2.1142,-2.1156,-2.1171,-2.1238,-2.1262,-2.1008,-2.1008,-2.1008,0,0,-2.0565,-2.0582,-2.0623,-2.069,-2.0712,-2.0777,-2.0695,-2.0768,-2.0816,-2.0756,-2.0851,-2.0861,-2.0896,-2.1008,-2.1059,-2.1023,-2.1241,-2.117,-2.1182,-2.1188,-2.1252,-2.1276,-2.1297,-2.1015,-2.1014,-2.1013,0,0,-2.0725,-2.0744,-2.0832,-2.0855,-2.0889,-2.0885,-2.0906,-2.0931,-2.0935,-2.1029,-2.0986,-2.1042,-2.1142,-2.1168,-2.1195,-2.1363,-2.1329,-2.1381,-2.1476,-2.1542,-2.1562,-2.158,-2.1642,-2.1664,-2.1394,-2.1395,-2.1395,0,-2.0808,-2.0904,-2.0881,-2.0956,-2.0987,-2.0934,-2.1023,-2.1046,-2.1096,-2.1119,-2.1077,-2.12,-2.1219,-2.1338,-2.1379,-2.1401,-2.1425,-2.1379,-2.1561,-2.1579,-2.1595,-2.1653,-2.1676,-2.1401,-2.14,-2.14,-2.1399,0,-2.1005,-2.1072,-2.1138,-2.1187,-2.1225,-2.1307,-2.1296,-2.1337,-2.1316,-2.1317,-2.1413,-2.1434,-2.1491,-2.1517,-2.1498,-2.1633,-2.1609,-2.1564,-2.1491,-2.1626,-2.168,-2.1703,-2.141,-2.1408,-2.1406,-2.1404,0,0,-2.1228,-2.1261,-2.1286,-2.1307,-2.134,-2.1392,-2.147,-2.1525,-2.1561,-2.1596,-2.1663,-2.1747,-2.1705,-2.1735,-2.1718,-2.1776,-2.191,-2.1724,-2.1724,-2.176,-2.2061,-2.2096,-2.2123,-2.1885,-2.1889,-2.1893,-2.2059,0,-2.1391,-2.1527,-2.1507,-2.1639,-2.1701,-2.1651,-2.1719,-2.1747,-2.1749,-2.1802,-2.1803,-2.1864,-2.1804,-2.1822,-2.1876,-2.1882,-2.197,-2.1869,-2.1948,-2.1951,-2.1944,-2.2151,-2.2189,-2.2345,-2.208,-2.2083,-2.2086,0,-2.16,-2.1642,-2.1781,-2.1803,-2.1828,-2.189,-2.1938,-2.1989,-2.2019,-2.2016,-2.2049,-2.2021,-2.2099,-2.2022,-2.2131,-2.2062,-2.2093,-2.21,-2.2105,-2.2115,-2.2029,-2.2168,-2.2394,-2.2418,-2.2119,-2.2116,-2.2114,0,-2.1751,-2.1842,-2.1937,-2.1956,-2.1984,-2.2029,-2.2043,-2.2068,-2.2102,-2.2144,-2.2166,-2.2216,-2.2245,-2.2284,-2.2271,-2.2215,-2.2383,-2.2304,-2.2384,-2.2384,-2.2424,-2.2422,-2.2661,-2.2439,-2.2439,-2.2439,-2.2438,0,-2.1937,-2.2024,-2.2005,-2.2064,-2.2159,-2.2135,-2.223,-2.2237,-2.226,-2.2319,-2.2277,-2.2334,-2.2311,-2.2366,-2.2355,-2.2448,-2.246,-2.2461,-2.2458,-2.2466,-2.2467,-2.2488,-2.2478,-2.2445,-2.2443,-2.2442,-2.2441,0,-2.2124,-2.2114,-2.2214,-2.2231,-2.2238,-2.2308,-2.2323,-2.2378,-2.2375,-2.245,-2.2466,-2.2463,-2.2525,-2.2515,-2.2584,-2.2576,-2.2692,-2.2674,-2.2683,-2.268,-2.2761,-2.2754,-2.3024,-2.3058,-2.2813,-2.2815,-2.2817,0,-2.2244,-2.231,-2.2334,-2.237,-2.2387,-2.2446,-2.248,-2.2457,-2.2495,-2.2533,-2.2583,-2.2641,-2.2687,-2.2789,-2.2793,-2.2845,-2.283,-2.292,-2.2838,-2.2845,-2.2834,-2.2831,-2.2838,-2.2938,-2.2941,-2.2943,-2.2945,0,-2.246,-2.2452,-2.2502,-2.2551,-2.2593,-2.263,-2.2664,-2.2696,-2.2676,-2.272,-2.2783,-2.2818,-2.2888,-2.2947,-2.2995,-2.3009,-2.2975,-2.297,-2.2992,-2.3003,-2.3006,-2.3008,-2.273,-2.2965,-2.2963,-2.2962,-2.2961,-2.296,-2.2619,-2.2675,-2.2701,-2.2758,-2.278,-2.2812,-2.2865,-2.2868,-2.292,-2.2975,-2.2958,-2.303,-2.3056,-2.3118,-2.3137,-2.3193,-2.3159,-2.3191,-2.3199,-2.3208,-2.3218,-2.2995,-2.3201,-2.3201,-2.32,-2.32,-2.3199,0,-2.2834,-2.2848,-2.2901,-2.2948,-2.2994,-2.2955,-2.2989,-2.303,-2.3094,-2.3121,-2.3166,-2.3238,-2.3295,-2.3302,-2.3355,-2.3399,-2.3384,-2.3414,-2.3412,-2.3416,-2.3244,-2.3221,-2.3424,-2.3424,-2.3424,-2.3424,-2.3424,-2.3424,-2.2952,-2.3045,-2.304,-2.3143,-2.3155,-2.3225,-2.3248,-2.3278,-2.3299,-2.3382,-2.3428,-2.3432,-2.3451,-2.3505,-2.3555,-2.3556,-2.3578,-2.3615,-2.3609,-2.345,-2.3428,-2.3406,-2.3385,-2.3619,-2.3619,-2.3776,-2.3778,-2.3779]},{"header":{"parameterUnit":"m.s-1","parameterCategory":1,"la1":30.2991,"la2":30.254,"lo1":-89.0895,"lo2":-89.0444,"dy":0.0017,"dx":0.0017,"nx":28,"ny":28,"refTime":"2024-04-22T09:00:00:Z","depth":0,"parameterNumber":3,"parameterNumberName":"V-component_of_WINDS"},"data":[0,0,0,0,0,0,0,0,0,0,0,0,0,0,0,0,0,0,0,0,0,0,0,0,0,0,0,0,0,0,0,0,0,0,0,0,0,0,0,0,0,0,0,0,0,0,0,0,0,0,0,0,0,0,0,0,0,0,-6.9469,-6.947,0,-6.9589,-6.959,-6.9591,-6.9486,-6.9482,-6.9478,-6.9474,-6.9591,-6.9598,-6.9605,0,0,0,0,0,0,0,0,0,0,0,0,0,-6.9143,-6.9149,-6.9469,-6.947,-6.9472,-6.9588,-6.959,-6.9592,-6.9487,-6.9482,-6.9477,-6.9472,-6.9589,-6.9597,-6.9606,0,0,0,0,0,0,0,0,0,0,0,0,0,-6.9276,-6.9151,-6.9468,-6.9434,-6.9432,-6.9588,-6.959,-6.9592,-6.9488,-6.9482,-6.9475,-6.9469,-6.9586,-6.9596,-6.9607,-6.9802,0,0,-6.9639,-6.9644,0,0,0,0,0,0,0,0,-6.9268,-6.9288,-6.9437,-6.9436,-6.9435,-6.9516,-6.9518,-6.9662,-6.949,-6.9467,-6.9473,-6.9466,-6.9571,-6.9582,-6.9619,-6.9808,-6.9813,-6.964,-6.9647,-6.9652,-6.9655,0,0,0,0,0,0,0,-6.9259,-6.9282,-6.9516,-6.944,-6.9438,-6.941,-6.9422,-6.9545,-6.9553,-6.9468,-6.9461,-6.9477,-6.9569,-6.9609,-6.9621,-6.9814,-6.964,-6.965,-6.9656,-6.966,-7.0167,-7.0174,0,0,0,0,0,0,-6.9254,-6.9275,-6.9512,-6.952,-6.9334,-6.9421,-6.9434,-6.9496,-6.9552,-6.9554,-6.9482,-6.9471,-6.9594,-6.9608,-6.9625,-6.9856,-6.9651,-6.9661,-6.9668,-7.016,-7.0169,-7.0176,0,0,0,0,0,0,-6.9248,-6.9276,-6.9507,-6.9395,-6.9423,-6.9434,-6.9504,-6.9502,-6.9542,-6.9562,-6.9563,-6.9522,-6.9589,-6.961,-6.9759,-6.9859,-6.9666,-6.9676,-7.0152,-7.0163,-7.0172,-7.0321,0,0,0,0,0,0,-6.9239,-6.9275,-6.9351,-6.9398,-6.9429,-6.9642,-6.951,-6.9509,-6.9561,-6.9549,-6.96,-6.9602,-6.9586,-6.9743,-6.9769,-6.987,-6.9684,-7.0143,-7.0157,-7.0169,-7.0308,-7.0336,-7.036,0,0,0,0,0,-6.9228,-6.9387,-6.9355,-6.9384,-6.9525,-6.9648,-6.9665,-6.9645,-6.957,-6.9645,-6.9658,-6.96,-6.9844,-6.976,-6.9788,-6.9893,-7.0136,-7.0153,-7.0168,-7.0296,-7.033,-7.0359,0,0,0,0,0,0,-6.935,-6.9393,-6.9358,-6.9538,-6.959,-6.963,-6.9725,-6.9682,-6.9756,-6.9741,-6.971,-6.9722,-6.988,-6.9901,-6.9807,-7.0084,-6.9977,-7.0,-7.0065,-7.0098,-7.0123,-7.0115,-6.9693,0,0,0,0,0,-6.9398,-6.9497,-6.9528,-6.9683,-6.9712,-6.9714,-6.9767,-6.9747,-6.9799,-6.982,-6.9844,-6.9895,-6.9983,-7.0041,-7.0123,-7.031,-7.0318,-7.0396,-7.0422,-7.0443,-7.0463,-7.0562,-7.0596,-7.0228,-7.0228,-7.0228,0,0,-6.9498,-6.9534,-6.9597,-6.9709,-6.9747,-6.9848,-6.9733,-6.9845,-6.9919,-6.9836,-6.9979,-6.9998,-7.0053,-7.0222,-7.0297,-7.0245,-7.0567,-7.0464,-7.048,-7.0489,-7.0582,-7.0617,-7.0648,-7.0239,-7.0237,-7.0235,0,0,-6.9732,-6.977,-6.9903,-6.9944,-7.0004,-7.0004,-7.0036,-7.0082,-7.0092,-7.0236,-7.0176,-7.0261,-7.0414,-7.0455,-7.0496,-7.0745,-7.0694,-7.0772,-7.0908,-7.1005,-7.1034,-7.106,-7.1148,-7.118,-7.0791,-7.0792,-7.0792,0,-6.9848,-7.0,-6.9976,-7.0093,-7.0143,-7.0074,-7.0208,-7.0248,-7.0331,-7.0366,-7.0306,-7.0495,-7.0527,-7.0704,-7.0765,-7.08,-7.0834,-7.0766,-7.1032,-7.1058,-7.1081,-7.1165,-7.1198,-7.0801,-7.08,-7.0799,-7.0798,0,-7.014,-7.0246,-7.0346,-7.043,-7.049,-7.0615,-7.0608,-7.0672,-7.0646,-7.0652,-7.0798,-7.0834,-7.0921,-7.0962,-7.0937,-7.1135,-7.11,-7.1037,-7.0929,-7.1126,-7.1204,-7.1236,-7.0814,-7.081,-7.0808,-7.0805,0,0,-7.0455,-7.0524,-7.0561,-7.0598,-7.0658,-7.0738,-7.0858,-7.0946,-7.1001,-7.106,-7.1159,-7.1289,-7.123,-7.1277,-7.1256,-7.1341,-7.1534,-7.1267,-7.1267,-7.1315,-7.1754,-7.1801,-7.1839,-7.1501,-7.1507,-7.1512,-7.1749,0,-7.0691,-7.0903,-7.0885,-7.1084,-7.118,-7.1116,-7.122,-7.1267,-7.1276,-7.1357,-7.1364,-7.1457,-7.1374,-7.1401,-7.1482,-7.1494,-7.1622,-7.1476,-7.1591,-7.1595,-7.158,-7.188,-7.193,-7.2153,-7.1779,-7.1784,-7.1788,0,-7.0996,-7.1067,-7.1277,-7.1322,-7.1361,-7.1456,-7.1534,-7.1613,-7.1664,-7.1664,-7.1716,-7.168,-7.1798,-7.1688,-7.185,-7.1751,-7.1797,-7.1809,-7.1817,-7.1827,-7.1704,-7.1897,-7.2223,-7.2257,-7.1836,-7.1832,-7.1829,0,-7.1204,-7.1353,-7.1497,-7.153,-7.1586,-7.1654,-7.168,-7.1725,-7.1779,-7.1846,-7.1879,-7.1959,-7.2003,-7.2064,-7.2049,-7.197,-7.2214,-7.2103,-7.2216,-7.2217,-7.2271,-7.2268,-7.2609,-7.2301,-7.23,-7.2299,-7.2299,0,-7.147,-7.1601,-7.1592,-7.1681,-7.1824,-7.18,-7.1943,-7.196,-7.2,-7.209,-7.2037,-7.2122,-7.2098,-7.2181,-7.2169,-7.2305,-7.2325,-7.2326,-7.2322,-7.2332,-7.2332,-7.2361,-7.2345,-7.2308,-7.2306,-7.2305,-7.2303,0,-7.1728,-7.1727,-7.1881,-7.1921,-7.1934,-7.2038,-7.2072,-7.2155,-7.2158,-7.2272,-7.2297,-7.2302,-7.2397,-7.2389,-7.2494,-7.2487,-7.2654,-7.2631,-7.2638,-7.2633,-7.2747,-7.2736,-7.3119,-7.3167,-7.2828,-7.2831,-7.2834,0,-7.1898,-7.1998,-7.2049,-7.2106,-7.2138,-7.223,-7.2284,-7.2264,-7.2322,-7.2387,-7.2462,-7.2552,-7.2623,-7.2777,-7.2789,-7.2869,-7.2847,-7.2976,-7.2859,-7.2865,-7.2849,-7.2844,-7.2853,-7.2999,-7.3003,-7.3006,-7.3009,0,-7.22,-7.2195,-7.2276,-7.2358,-7.2424,-7.2487,-7.2544,-7.2593,-7.2577,-7.2645,-7.2743,-7.2798,-7.2906,-7.2996,-7.3072,-7.3096,-7.305,-7.3045,-7.3076,-7.3087,-7.3086,-7.3088,-7.2701,-7.3037,-7.3034,-7.3032,-7.303,-7.3029,-7.2419,-7.2504,-7.2554,-7.2646,-7.2686,-7.2741,-7.282,-7.2834,-7.2916,-7.3004,-7.2985,-7.3095,-7.3141,-7.3238,-7.327,-7.3354,-7.3307,-7.3351,-7.3362,-7.3374,-7.3387,-7.3073,-7.3367,-7.3366,-7.3365,-7.3365,-7.3364,0,-7.2718,-7.2746,-7.2832,-7.2913,-7.2986,-7.2937,-7.2997,-7.306,-7.3157,-7.3205,-7.3277,-7.3387,-7.3474,-7.3493,-7.3575,-7.3638,-7.3618,-7.366,-7.3655,-7.3661,-7.3424,-7.339,-7.3674,-7.3674,-7.3674,-7.3674,-7.3674,-7.3674,-7.2882,-7.3023,-7.3023,-7.3183,-7.3209,-7.3318,-7.3356,-7.3405,-7.3443,-7.357,-7.3642,-7.3654,-7.369,-7.3774,-7.385,-7.3853,-7.3886,-7.3936,-7.3931,-7.3709,-7.3678,-7.3648,-7.3616,-7.3943,-7.3944,-7.4161,-7.4163,-7.4164]}]]